06.05.2024;20:00;12
06.05.2024;19:00;15
06.05.2024;18:00;10
06.05.2024;17:00;8
06.05.2024;16:00;6
06.05.2024;15:00;5
06.05.2024;14:00;5
06.05.2024;13:00;5
06.05.2024;12:00;5
06.05.2024;11:00;5
06.05.2024;10:00;6
06.05.2024;09:00;8
06.05.2024;08:00;10
06.05.2024;07:00;6
06.05.2024;06:00;6
06.05.2024;05:00;6
06.05.2024;04:00;5
06.05.2024;03:00;4
06.05.2024;02:00;7
06.05.2024;01:00;8
05.05.2024;24:00;8
05.05.2024;23:00;6
05.05.2024;22:00;6
05.05.2024;21:00;5
05.05.2024;20:00;4
05.05.2024;19:00;3
05.05.2024;18:00;3
05.05.2024;17:00;3
05.05.2024;16:00;4
05.05.2024;15:00;4
05.05.2024;14:00;3
05.05.2024;13:00;3
05.05.2024;12:00;4
05.05.2024;11:00;5
05.05.2024;10:00;6
05.05.2024;09:00;9
05.05.2024;08:00;11
05.05.2024;07:00;13
05.05.2024;06:00;14
05.05.2024;05:00;15
05.05.2024;04:00;16
05.05.2024;03:00;16
05.05.2024;02:00;17
05.05.2024;01:00;17
04.05.2024;24:00;18
04.05.2024;23:00;17
04.05.2024;22:00;15
04.05.2024;21:00;13
04.05.2024;20:00;13
04.05.2024;19:00;11
04.05.2024;18:00;8
04.05.2024;17:00;7
04.05.2024;16:00;6
04.05.2024;15:00;6
04.05.2024;14:00;6
04.05.2024;13:00;6
04.05.2024;12:00;6
04.05.2024;11:00;6
04.05.2024;10:00;6
04.05.2024;09:00;5
04.05.2024;08:00;6
04.05.2024;07:00;7
04.05.2024;06:00;7
04.05.2024;05:00;8
04.05.2024;04:00;8
04.05.2024;03:00;8
04.05.2024;02:00;9
04.05.2024;01:00;8
03.05.2024;24:00;8
03.05.2024;23:00;9
03.05.2024;22:00;10
03.05.2024;21:00;10
03.05.2024;20:00;10
03.05.2024;19:00;8
03.05.2024;18:00;8
03.05.2024;17:00;6
03.05.2024;16:00;5
03.05.2024;15:00;5
03.05.2024;14:00;5
03.05.2024;13:00;6
03.05.2024;12:00;5
03.05.2024;11:00;4
03.05.2024;10:00;4
03.05.2024;09:00;4
03.05.2024;08:00;4
03.05.2024;07:00;4
03.05.2024;06:00;4
03.05.2024;05:00;4
03.05.2024;04:00;5
03.05.2024;03:00;5
03.05.2024;02:00;6
03.05.2024;01:00;8
02.05.2024;24:00;9
02.05.2024;23:00;11
02.05.2024;22:00;10
02.05.2024;21:00;6
02.05.2024;20:00;5
02.05.2024;19:00;5
02.05.2024;18:00;4
02.05.2024;17:00;5
02.05.2024;16:00;5
02.05.2024;15:00;4
02.05.2024;14:00;5
02.05.2024;13:00;6
02.05.2024;12:00;6
02.05.2024;11:00;9
02.05.2024;10:00;13
02.05.2024;09:00;17
02.05.2024;08:00;14
02.05.2024;07:00;17
02.05.2024;06:00;18
02.05.2024;05:00;16
02.05.2024;04:00;13
02.05.2024;03:00;14
02.05.2024;02:00;16
02.05.2024;01:00;18
01.05.2024;24:00;19
01.05.2024;23:00;22
01.05.2024;22:00;21
01.05.2024;21:00;20
01.05.2024;20:00;22
01.05.2024;19:00;19
01.05.2024;18:00;18
01.05.2024;17:00;17
01.05.2024;16:00;15
01.05.2024;15:00;15
01.05.2024;14:00;15
01.05.2024;13:00;14
01.05.2024;12:00;13
01.05.2024;11:00;14
01.05.2024;10:00;15
01.05.2024;09:00;17
01.05.2024;08:00;18
01.05.2024;07:00;22
01.05.2024;06:00;24
01.05.2024;05:00;21
01.05.2024;04:00;24
01.05.2024;03:00;19
01.05.2024;02:00;20
01.05.2024;01:00;27
